User: anonymous   Login
Location: Unspecified
(0.0000°N, 0.0000°E)
Time: 10:01:59
(UTC+00:00)
Language:

STARLINK-31514 - Orbit

View from above orbital plane
View from above orbital plane
View from above satellite
View from above satellite

Ground track
Ground track

The orbit is defined by the following mean orbital elements,

1 59187U          26145.34380742 +.00000000 +00000-0 -44964-4 0 00004
2 59187  43.0039  19.7290 0001018 279.7508  80.3229 15.27578806    00
Epoch (UTC): 25 May 2026 08:15:04
Eccentricity: 0.0001018
inclination: 43.0039°
perigee height: 482 km
apogee height: 484 km
right ascension of ascending node: 19.7290°
argument of perigee: 279.7508°
revolutions per day: 15.27578806
mean anomaly at epoch: 80.3229°

The dashed part of the orbit path shows where the satellite is in the earth's shadow,  

DLR